Find Starlink 31809

NORAD ID: 59743 Int'l Des: 2024-090 Owner: SPXS Country: US Constellation: starlink operational
LEOCIRCULAR

当前视图

正在加载3D地球...

About Starlink 31809

Starlink 31809 (NORAD 59743) is a starlink constellation satellite (v2 mini) launched May 13, 2024 by SPXS of US. It operates in LEO, CIRCULAR orbit with a mass of 730.00 kg.

即将过境

Passes for default location (London). Set your location on the main map for personalized predictions.

高度历史

Loading altitude history...

两行轨道根数

1 59743U 24090P 26224.91513411 .00002504 00000-0 10051-3 0 9995
2 59743 43.0035 14.2194 0001384 269.2941 90.7752 15.27574674127418
Epoch: Aug 12, 2026 • Age: 15 hours

当前状态

高度 486.9 km
远地点 / 近地点 N/A
速度 7.63 km/s
星下点 42.15°N, 33.94°W
发射日期 May 13, 2024
运行时间 2.2 years
类型 internet

技术详情

分类 Payload
质量 730.00 kg
干质量 700.00 kg
总质量 730.00 kg
长度 0.30 m
直径 4.10 m
跨度 29.00 m
形状 Box + pan
制造商 SPXS
平台类型 Starlink V2M
阶段状态 In Orbit
所有者/国家 SPXS/US

Most Searched